View from above orbital plane
|
View from above satellite
|
Ground track
|
The orbit data is extracted from the following two-line orbital elements,
1 16327U 85113B 21055.84972775 .00000108 00000-0 10169-4 0 9999
2 16327 82.5319 271.4757 0018055 216.8310 153.7584 14.83495073880678
Epoch (UTC): | 24 February 2021 20:23:36 |
Eccentricity: | 0.0018055 |
inclination: | 82.5319° |
perigee height: | 605 km |
apogee height: | 631 km |
right ascension of ascending node: | 271.4757° |
argument of perigee: | 216.8310° |
revolutions per day: | 14.83495073 |
mean anomaly at epoch: | 153.7584° |
orbit number at epoch: | 88067 |
The dashed part of the orbit path shows where the satellite is in the earth's shadow,
|
|